Погода в Леушах

Россия / Ханты-Мансийский автономный округ - Югра     59°37′24″N   65°45′05″E
темп.,
°C
ветер,
м/с
пор.,
м/с
влажн.,
%
обл.,
%
осадки,
мм/ч
давл.,
гПа
погр.,
м
1 декабря, ср
ср123:000ююв51687100 0.2 1006552
02:000ю71890100 0.8 1003651
05:00+1ююз71789100 2.4 1001811
08:00+1ююз51590100 0.0 1002617
11:00+1ююз51296100 0.0 1003478
14:00+1ююз41198100 0.0 1003466
17:00+1ю41198100 0.0 1003412
20:00+1ю41198100 0.0 1002441
2 декабря, чт
чт223:00+1ююв51495100 0.0 1000541
02:00+2ююв61990100 0.2 996642
05:00+2ю61583100 0.3 995818
08:00+1ю51488100 0.0 994584
11:00+1ююз51296100 0.6 993584
14:00+1ююз41198100 0.4 993519
17:00+1ююз41198100 0.6 994557
20:00+1зюз41198100 0.1 994667
3 декабря, пт
пт323:00−1з51188100 0.2 996614
02:00−3зюз41189100 0.0 997586
05:00−4зюз4108895 0.1 998702
08:00−5зюз5128574 0.0 999737
11:00−4зюз51185100 0.0 10001166
14:00−4зюз6107775 0.1 10011102
17:00−5з6117680 0.2 10031045
20:00−6з6117991 0.0 10061062
4 декабря, сб
сб423:00−7з5118171 0.0 1008837
02:00−7з4118415 0.0 1011690
05:00−8з310885 0.0 1014495
08:00−9юз279469 0.0 1016223
11:00−8зюз26935 0.0 1018242
14:00−6ююз1291100 0.0 1018169
17:00−6в2496100 0.4 1018192
20:00−5вюв4995100 1.4 1015335
5 декабря, вс
вс523:00−2ю51495100 2.1 1011608
02:00+1юз51497100 1.8 1009851
05:00+1юз51397100 3.1 1009840
08:000зсз3998100 0.4 1010567
11:00−4ссз2796100 1.6 1012331
14:00−7ссз3592100 0.3 1013280
17:00−10ссз369583 0.3 1015275
20:00−13ссз269562 0.0 1017240